Location: The Saddle
(36.8333°N, 80.3417°W)
Time: 03:14:40
(UTC-05:00)

Courier 1B - All Passes

Search period start: 11 December 2023 00:00
Search period end: 21 December 2023 00:00
Orbit: 962 x 1208 km, 28.3° (Epoch: 10 December)

Date Brightness Start Highest point End Pass type
(mag) Time Alt. Az. Time Alt. Az. Time Alt. Az.
11 Dec - 06:00:18 10° SSW 06:06:04 24° SSE 06:11:35 10° ESE visible
11 Dec - 07:52:55 10° WSW 07:59:36 39° S 08:05:54 10° ESE daylight
11 Dec - 09:46:45 10° WSW 09:53:12 39° S 09:59:19 10° ESE daylight
11 Dec - 11:41:21 10° WSW 11:46:32 24° SSW 11:51:33 10° SSE daylight
12 Dec - 05:07:07 10° SSW 05:12:20 20° SSE 05:17:23 10° ESE visible
12 Dec - 06:59:08 10° SW 07:05:50 36° S 07:12:10 10° ESE daylight
12 Dec - 08:52:48 10° WSW 08:59:29 42° S 09:05:47 10° ESE daylight
12 Dec - 10:47:10 10° WSW 10:52:55 29° SSW 10:58:27 10° SE daylight
12 Dec - 12:44:08 10° SW 12:46:00 11° SSW 12:47:51 10° SSW daylight
13 Dec - 04:14:17 10° S 04:18:36 16° SSE 04:22:48 10° ESE visible
13 Dec - 06:05:27 10° SW 06:12:04 33° SSE 06:18:21 10° ESE visible
13 Dec - 07:58:51 10° WSW 08:05:43 43° S 08:12:11 10° ESE daylight
13 Dec - 09:53:03 10° WSW 09:59:17 34° SSW 10:05:12 10° SE daylight
13 Dec - 11:48:38 10° WSW 11:52:28 16° SSW 11:56:12 10° S daylight
14 Dec - 03:22:17 10° S 03:24:52 12° SSE 03:27:27 10° SE visible
14 Dec - 05:11:54 10° SW 05:18:16 29° SSE 05:24:24 10° ESE visible
14 Dec - 07:04:56 10° WSW 07:11:55 42° S 07:18:32 10° ESE daylight
14 Dec - 08:58:58 10° WSW 09:05:35 38° S 09:11:48 10° SE daylight
14 Dec - 10:53:58 10° WSW 10:58:53 21° SSW 11:03:39 10° SSE daylight
15 Dec - 04:18:31 10° SSW 04:24:30 24° SSE 04:30:19 10° ESE visible
15 Dec - 06:11:04 10° WSW 06:18:06 40° S 06:24:48 10° ESE visible
15 Dec - 08:04:56 10° WSW 08:11:50 41° S 08:18:19 10° ESE daylight
15 Dec - 09:59:35 10° WSW 10:05:17 26° SSW 10:10:43 10° SSE daylight
16 Dec - 03:25:24 10° SSW 03:30:43 20° SSE 03:35:58 10° ESE visible
16 Dec - 05:17:18 10° SW 05:24:17 37° SSE 05:30:59 10° ESE visible
16 Dec - 07:10:56 10° WSW 07:18:02 44° S 07:24:45 10° ESE daylight
16 Dec - 09:05:21 10° WSW 09:11:36 31° SSW 09:17:34 10° SE daylight
16 Dec - 11:01:47 10° SW 11:04:45 13° SSW 11:07:40 10° S daylight
17 Dec - 02:32:42 10° S 02:36:59 16° SSE 02:41:13 10° ESE visible
17 Dec - 04:23:38 10° SW 04:30:27 33° SSE 04:37:03 10° ESE visible
17 Dec - 06:16:58 10° WSW 06:24:12 44° S 06:31:04 10° ESE visible
17 Dec - 08:11:11 10° WSW 08:17:53 36° SSW 08:24:15 10° SE daylight
17 Dec - 10:06:39 10° WSW 10:11:10 18° SSW 10:15:34 10° SSE daylight
18 Dec - 01:41:03 10° SSE 01:43:15 11° SSE 01:45:26 10° SE night (unlit)
18 Dec - 03:30:08 10° SW 03:36:37 29° SSE 03:43:00 10° ESE visible
18 Dec - 05:23:03 10° WSW 05:30:20 43° S 05:37:19 10° ESE visible
18 Dec - 07:17:05 10° WSW 07:24:06 40° S 07:30:46 10° ESE daylight
18 Dec - 09:12:01 10° WSW 09:17:33 23° SSW 09:22:51 10° SSE daylight
19 Dec - 02:36:51 10° SSW 02:42:49 24° SSE 02:48:45 10° ESE visible
19 Dec - 04:29:14 10° WSW 04:36:27 41° S 04:43:29 10° ESE visible
19 Dec - 06:23:02 10° WSW 06:30:16 43° S 06:37:11 10° ESE visible
19 Dec - 08:17:38 10° WSW 08:23:52 28° SSW 08:29:49 10° SE daylight
19 Dec - 10:15:45 10° SW 10:16:59 10° SSW 10:18:13 10° SSW daylight
20 Dec - 01:43:53 10° SSW 01:49:02 19° SSE 01:54:13 10° ESE night (unlit)
20 Dec - 03:35:31 10° SW 03:42:35 37° SSE 03:49:32 10° ESE visible
20 Dec - 05:29:02 10° WSW 05:36:24 45° S 05:43:31 10° ESE visible
20 Dec - 07:23:24 10° WSW 07:30:08 34° SSW 07:36:32 10° SE daylight
20 Dec - 09:19:27 10° WSW 09:23:24 15° SSW 09:27:13 10° S daylight
